Weather History for Las Vegas, NV

Change the Weather History Date:

Tuesday, February 26, 2013

  Actual Average Record
Temperature  
Mean Temperature 48 °F 56 °F  
Max Temperature 59 °F 65 °F 87 °F (1986)
Min Temperature 37 °F 46 °F 28 °F (1971)
Degree Days  
Heating Degree Days 17 10  
Month to date heating degree days 343 321  
Since 1 July heating degree days 1607 1673  
Cooling Degree Days 0 0  
Month to date cooling degree days 0 0  
Year to date cooling degree days 0 0  
Moisture  
Dew Point 9 °F    
Average Humidity 22    
Maximum Humidity 33    
Minimum Humidity 10    
Precipitation  
Precipitation 0.00 in 0.03 in 0.57 in (2001)
Month to date precipitation T 0.71  
Year to date precipitation 0.43 1.25  
Snow  
Snow 0.00 in 0.00 in T in (1996)
Month to date snowfall 0.0 0.1  
Since 1 July snowfall T 0.3  
Snow Depth 0.00 in    
Sea Level Pressure  
Sea Level Pressure 30.11 in    
Wind  
Wind Speed 8 mph (NE)    
Max Wind Speed 21 mph    
Max Gust Speed 31 mph    
Visibility 10 miles    
Events      
T = Trace of Precipitation, MM = Missing Value Source: NWS Daily Summary

Daily Weather History Graph

Daily Weather History Graph

Search for Another Location

Airport:

Trip Planner

Search our weather history database for the weather conditions in past years. The results will help you decide how hot, cold, wet, or windy it might be!

Date:

Astronomy

Feb. 26, 2013 Rise Set
Actual Time 6:14 AM PST 5:33 PM PST
Civil Twilight 5:48 AM PST 5:58 PM PST
Nautical Twilight 5:18 AM PST 6:28 PM PST
Astronomical Twilight 4:49 AM PST 6:58 PM PST
Moon 6:50 PM PST (2/26) 6:22 AM PST (2/26)
Length of Visible Light 12h 10m
Length of Day
11h 18m
Full, 99% of the Moon is Illuminated
Feb 26
Full
Mar 4
Last Quarter
Mar 11
New
Mar 19
First Quarter
Mar 27
Full

Hourly Weather History & Observations

Time (PST) Temp. Windchill Dew Point Humidity Pressure Visibility Wind Dir Wind Speed Gust Speed Precip Events Conditions
12:56 AM 44.1 °F - 9.0 °F 24% 30.03 in 10.0 mi Calm Calm - N/A   Clear
1:56 AM 44.1 °F 40.1 °F 10.9 °F 26% 30.01 in 10.0 mi SW 6.9 mph - N/A   Clear
2:56 AM 39.9 °F 35.8 °F 12.0 °F 32% 30.01 in 10.0 mi SW 5.8 mph - N/A   Clear
3:56 AM 39.0 °F 34.0 °F 10.9 °F 32% 30.01 in 10.0 mi SSW 6.9 mph - N/A   Clear
4:56 AM 37.0 °F 30.4 °F 10.9 °F 34% 30.04 in 10.0 mi South 9.2 mph - N/A   Clear
5:56 AM 39.0 °F 32.8 °F 12.0 °F 33% 30.05 in 10.0 mi SSW 9.2 mph - N/A   Clear
6:56 AM 39.0 °F 35.7 °F 12.9 °F 34% 30.09 in 10.0 mi WSW 4.6 mph - N/A   Clear
7:56 AM 45.0 °F 42.6 °F 12.9 °F 27% 30.12 in 10.0 mi South 4.6 mph - N/A   Clear
8:56 AM 50.0 °F - 12.0 °F 22% 30.14 in 10.0 mi East 8.1 mph - N/A   Clear
9:56 AM 54.0 °F - 10.9 °F 18% 30.14 in 10.0 mi NNE 10.4 mph - N/A   Clear
10:56 AM 55.0 °F - 8.1 °F 15% 30.13 in 10.0 mi NE 18.4 mph 26.5 mph N/A   Clear
11:56 AM 55.9 °F - 5.0 °F 13% 30.12 in 10.0 mi NNW 12.7 mph 23.0 mph N/A   Clear
12:56 PM 55.9 °F - 6.1 °F 14% 30.11 in 10.0 mi NE 9.2 mph - N/A   Clear
1:56 PM 57.0 °F - 3.9 °F 12% 30.08 in 10.0 mi NNE 8.1 mph 16.1 mph N/A   Clear
2:56 PM 59.0 °F - 6.1 °F 12% 30.08 in 10.0 mi NNE 5.8 mph - N/A   Clear
3:56 PM 57.9 °F - 5.0 °F 12% 30.07 in 10.0 mi North 9.2 mph - N/A   Clear
4:56 PM 57.0 °F - 1.9 °F 11% 30.09 in 10.0 mi ENE 9.2 mph - N/A   Clear
5:56 PM 54.0 °F - 1.9 °F 12% 30.10 in 10.0 mi ENE 8.1 mph - N/A   Clear
6:56 PM 51.1 °F - 8.1 °F 18% 30.14 in 10.0 mi SE 3.5 mph - N/A   Clear
7:56 PM 50.0 °F - 9.0 °F 19% 30.16 in 10.0 mi NE 6.9 mph - N/A   Clear
8:56 PM 48.9 °F - 10.0 °F 21% 30.19 in 10.0 mi NE 5.8 mph - N/A   Clear
9:56 PM 48.0 °F - 10.0 °F 22% 30.21 in 10.0 mi NE 5.8 mph - N/A   Clear
10:56 PM 46.9 °F - 9.0 °F 21% 30.22 in 10.0 mi ENE 8.1 mph - N/A   Clear
11:56 PM 45.0 °F 42.6 °F 10.0 °F 24% 30.23 in 10.0 mi Variable 4.6 mph - N/A   Clear